[[{"header":{"parameterUnit":"m.s-1","parameterCategory":1,"la1":30.2991,"la2":30.254,"lo1":-89.0895,"lo2":-89.0444,"dy":0.0017,"dx":0.0017,"nx":28,"ny":28,"refTime":"2023-08-07T09:00:00:Z","depth":0,"parameterNumber":2,"parameterNumberName":"U-component_of_WINDS"},"data":[0,0,0,0,0,0,0,0,0,0,0,0,0,0,0,0,0,0,0,0,0,0,0,0,0,0,0,0,0,0,0,0,0,0,0,0,0,0,0,0,0,0,0,0,0,0,0,0,0,0,0,0,0,0,0,0,0,0,-0.1072,-0.1072,0,-0.1084,-0.1084,-0.1084,-0.1121,-0.1122,-0.1123,-0.1124,-0.1134,-0.1133,-0.1133,0,0,0,0,0,0,0,0,0,0,0,0,0,-0.1081,-0.1081,-0.1072,-0.1072,-0.1072,-0.1084,-0.1084,-0.1084,-0.1121,-0.1122,-0.1123,-0.1124,-0.1134,-0.1133,-0.1133,0,0,0,0,0,0,0,0,0,0,0,0,0,-0.1083,-0.1081,-0.1072,-0.1092,-0.1094,-0.1084,-0.1084,-0.1084,-0.1121,-0.1122,-0.1124,-0.1125,-0.1134,-0.1133,-0.1133,-0.1103,0,0,-0.113,-0.113,0,0,0,0,0,0,0,0,-0.1083,-0.1083,-0.1089,-0.1091,-0.1093,-0.1102,-0.1091,-0.109,-0.1121,-0.1111,-0.1124,-0.1125,-0.1122,-0.1122,-0.1122,-0.1103,-0.1104,-0.113,-0.113,-0.1129,-0.1129,0,0,0,0,0,0,0,-0.1083,-0.1083,-0.1077,-0.1089,-0.1091,-0.1101,-0.1102,-0.1091,-0.1109,-0.1112,-0.1114,-0.1115,-0.1123,-0.1123,-0.1122,-0.1104,-0.113,-0.113,-0.1129,-0.1129,-0.1064,-0.1063,0,0,0,0,0,0,-0.108,-0.1082,-0.1076,-0.1077,-0.1091,-0.1099,-0.1101,-0.1098,-0.1109,-0.1112,-0.1114,-0.1117,-0.1123,-0.1123,-0.1123,-0.109,-0.1129,-0.1129,-0.1128,-0.1065,-0.1063,-0.1062,0,0,0,0,0,0,-0.108,-0.1079,-0.1076,-0.108,-0.1081,-0.1098,-0.1094,-0.1098,-0.1097,-0.1112,-0.1115,-0.111,-0.1124,-0.1124,-0.1108,-0.1091,-0.1128,-0.1128,-0.1067,-0.1065,-0.1063,-0.1023,0,0,0,0,0,0,-0.108,-0.1079,-0.1068,-0.108,-0.108,-0.1061,-0.1093,-0.1097,-0.1096,-0.1099,-0.1108,-0.1111,-0.1125,-0.1109,-0.1107,-0.109,-0.1127,-0.1068,-0.1066,-0.1063,-0.1026,-0.102,-0.1015,0,0,0,0,0,-0.108,-0.1055,-0.1067,-0.1066,-0.1067,-0.106,-0.106,-0.1077,-0.1094,-0.1083,-0.1093,-0.1111,-0.1093,-0.1107,-0.1106,-0.1088,-0.1069,-0.1066,-0.1064,-0.1028,-0.1021,-0.1015,0,0,0,0,0,0,-0.1039,-0.1057,-0.107,-0.1048,-0.1052,-0.1066,-0.1052,-0.1069,-0.1067,-0.1071,-0.1092,-0.1094,-0.1075,-0.108,-0.1096,-0.1061,-0.1084,-0.1081,-0.1058,-0.1051,-0.1046,-0.1045,-0.1126,0,0,0,0,0,-0.1028,-0.1021,-0.1037,-0.1016,-0.1017,-0.1035,-0.1032,-0.1046,-0.105,-0.1052,-0.106,-0.1064,-0.106,-0.1056,-0.1052,-0.1027,-0.103,-0.1015,-0.1009,-0.1005,-0.1001,-0.099,-0.0983,-0.1053,-0.1053,-0.1053,0,0,-0.1003,-0.1012,-0.1006,-0.1008,-0.1012,-0.1005,-0.1036,-0.1026,-0.1021,-0.105,-0.1036,-0.1043,-0.1048,-0.1028,-0.102,-0.1032,-0.0983,-0.1001,-0.0997,-0.0996,-0.0986,-0.0979,-0.0974,-0.1051,-0.1051,-0.1051,0,0,-0.0955,-0.0961,-0.0945,-0.095,-0.0958,-0.097,-0.0966,-0.0978,-0.0983,-0.097,-0.0993,-0.0987,-0.0978,-0.0982,-0.0982,-0.0938,-0.0955,-0.0937,-0.0907,-0.0896,-0.089,-0.0886,-0.0871,-0.0865,-0.0933,-0.0933,-0.0933,0,-0.0924,-0.0914,-0.0935,-0.0924,-0.0925,-0.0953,-0.0937,-0.094,-0.0946,-0.0945,-0.0959,-0.095,-0.0956,-0.0938,-0.0927,-0.0927,-0.0923,-0.0935,-0.089,-0.0885,-0.0881,-0.0867,-0.0861,-0.0931,-0.0931,-0.0932,-0.0932,0,-0.0876,-0.0869,-0.0855,-0.0861,-0.086,-0.0846,-0.0866,-0.0862,-0.0876,-0.0887,-0.0874,-0.0882,-0.0881,-0.0878,-0.0891,-0.0862,-0.0869,-0.0886,-0.091,-0.0872,-0.0859,-0.0853,-0.0928,-0.0929,-0.0929,-0.093,0,0,-0.08,-0.082,-0.0814,-0.0818,-0.083,-0.0825,-0.0813,-0.0814,-0.0811,-0.0814,-0.0805,-0.0799,-0.0815,-0.0816,-0.083,-0.082,-0.0786,-0.0838,-0.0838,-0.0828,-0.0755,-0.0742,-0.0736,-0.0797,-0.0796,-0.0795,-0.0755,0,-0.0755,-0.0737,-0.0757,-0.0735,-0.0729,-0.0757,-0.0748,-0.0753,-0.0764,-0.076,-0.0772,-0.0767,-0.0788,-0.0789,-0.0781,-0.0791,-0.0771,-0.0795,-0.0789,-0.0789,-0.0786,-0.0729,-0.0715,-0.0676,-0.075,-0.0749,-0.0748,0,-0.07,-0.0702,-0.068,-0.0695,-0.0693,-0.0684,-0.0688,-0.0684,-0.0692,-0.07,-0.0702,-0.072,-0.071,-0.0734,-0.0721,-0.0737,-0.0736,-0.0741,-0.074,-0.074,-0.0766,-0.0727,-0.0664,-0.0658,-0.074,-0.0741,-0.0742,0,-0.0648,-0.0646,-0.0633,-0.0635,-0.0651,-0.0645,-0.0651,-0.0661,-0.066,-0.0663,-0.0663,-0.0664,-0.0665,-0.0665,-0.0683,-0.0699,-0.0668,-0.0693,-0.0675,-0.0674,-0.0666,-0.0666,-0.0602,-0.0666,-0.0666,-0.0666,-0.0666,0,-0.0595,-0.0581,-0.061,-0.0601,-0.0586,-0.0609,-0.0594,-0.0603,-0.0612,-0.0606,-0.063,-0.0624,-0.0648,-0.0644,-0.0658,-0.0646,-0.0646,-0.0652,-0.0656,-0.065,-0.0649,-0.0649,-0.0652,-0.0664,-0.0665,-0.0665,-0.0665,0,-0.0534,-0.0553,-0.054,-0.0558,-0.0562,-0.055,-0.0565,-0.0559,-0.0572,-0.0564,-0.0564,-0.0583,-0.0581,-0.0599,-0.0599,-0.0609,-0.059,-0.0598,-0.0587,-0.059,-0.057,-0.0572,-0.0503,-0.0496,-0.0565,-0.0564,-0.0563,0,-0.0499,-0.0489,-0.0506,-0.0505,-0.051,-0.0507,-0.0508,-0.0531,-0.053,-0.054,-0.0532,-0.0532,-0.0533,-0.0528,-0.0542,-0.0543,-0.0551,-0.0527,-0.0551,-0.0546,-0.0551,-0.0551,-0.0551,-0.0522,-0.0521,-0.052,-0.052,0,-0.0435,-0.0446,-0.0446,-0.045,-0.045,-0.0454,-0.0459,-0.0456,-0.0481,-0.048,-0.0478,-0.0479,-0.0481,-0.0481,-0.0485,-0.0491,-0.051,-0.0512,-0.0508,-0.0502,-0.0496,-0.0499,-0.0574,-0.0514,-0.0514,-0.0515,-0.0515,-0.0515,-0.0386,-0.0379,-0.0391,-0.039,-0.0397,-0.0402,-0.0398,-0.0411,-0.041,-0.0414,-0.0428,-0.0424,-0.0434,-0.0441,-0.0447,-0.0444,-0.0456,-0.0449,-0.0448,-0.0446,-0.0442,-0.0497,-0.0445,-0.0445,-0.0445,-0.0445,-0.0446,0,-0.0324,-0.0334,-0.0333,-0.0341,-0.0341,-0.036,-0.0367,-0.0366,-0.0363,-0.0371,-0.0372,-0.0371,-0.0372,-0.0387,-0.0389,-0.0384,-0.0393,-0.0384,-0.0384,-0.0386,-0.0432,-0.0435,-0.0377,-0.0377,-0.0377,-0.0377,-0.0377,-0.0377,-0.0292,-0.0281,-0.0293,-0.0286,-0.0296,-0.0293,-0.0296,-0.0301,-0.0308,-0.0306,-0.0307,-0.0318,-0.0329,-0.0332,-0.0334,-0.0338,-0.0338,-0.0326,-0.0333,-0.0376,-0.0382,-0.0388,-0.0392,-0.0326,-0.0326,-0.0288,-0.0287,-0.0287]},{"header":{"parameterUnit":"m.s-1","parameterCategory":1,"la1":30.2991,"la2":30.254,"lo1":-89.0895,"lo2":-89.0444,"dy":0.0017,"dx":0.0017,"nx":28,"ny":28,"refTime":"2023-08-07T09:00:00:Z","depth":0,"parameterNumber":3,"parameterNumberName":"V-component_of_WINDS"},"data":[0,0,0,0,0,0,0,0,0,0,0,0,0,0,0,0,0,0,0,0,0,0,0,0,0,0,0,0,0,0,0,0,0,0,0,0,0,0,0,0,0,0,0,0,0,0,0,0,0,0,0,0,0,0,0,0,0,0,5.2641,5.264,0,5.2576,5.2575,5.2574,5.2451,5.2448,5.2446,5.2444,5.238,5.2381,5.2381,0,0,0,0,0,0,0,0,0,0,0,0,0,5.2662,5.2662,5.2641,5.264,5.2639,5.2576,5.2575,5.2574,5.2451,5.2448,5.2445,5.2443,5.238,5.2381,5.2381,0,0,0,0,0,0,0,0,0,0,0,0,0,5.2631,5.2662,5.2641,5.257,5.2563,5.2576,5.2575,5.2574,5.2452,5.2448,5.2445,5.2441,5.238,5.238,5.2381,5.2459,0,0,5.2384,5.2384,0,0,0,0,0,0,0,0,5.2632,5.263,5.2581,5.2575,5.2567,5.2518,5.2559,5.2536,5.2453,5.2494,5.2444,5.2439,5.2429,5.2426,5.2421,5.2456,5.2453,5.2384,5.2384,5.2385,5.2385,0,0,0,0,0,0,0,5.2635,5.2632,5.2615,5.2581,5.2572,5.2543,5.2534,5.2554,5.2483,5.249,5.2481,5.2475,5.2424,5.2421,5.2419,5.2452,5.2384,5.2385,5.2385,5.2385,5.2547,5.255,0,0,0,0,0,0,5.2647,5.2635,5.2617,5.2613,5.2592,5.2545,5.2536,5.2537,5.2482,5.247,5.2478,5.247,5.2421,5.2418,5.2416,5.2502,5.2385,5.2386,5.2386,5.2543,5.2547,5.2552,0,0,0,0,0,0,5.2648,5.2646,5.262,5.2621,5.2616,5.2549,5.2551,5.2538,5.2534,5.2473,5.246,5.2487,5.2418,5.2415,5.2449,5.2498,5.2386,5.2387,5.2538,5.2544,5.255,5.2676,0,0,0,0,0,0,5.2649,5.2648,5.2676,5.2623,5.2616,5.2653,5.2555,5.2539,5.2536,5.2524,5.2478,5.2467,5.2415,5.2448,5.245,5.2498,5.2387,5.2534,5.2541,5.2548,5.2667,5.2686,5.2701,0,0,0,0,0,5.265,5.2715,5.2678,5.2676,5.265,5.2656,5.2652,5.259,5.254,5.2568,5.2529,5.2469,5.2493,5.2453,5.2453,5.2502,5.253,5.2539,5.2547,5.266,5.2682,5.2701,0,0,0,0,0,0,5.2776,5.2706,5.2664,5.2714,5.2692,5.2635,5.2668,5.2616,5.2608,5.2598,5.2522,5.2513,5.2557,5.2533,5.2489,5.2574,5.2502,5.2511,5.2588,5.2608,5.2625,5.2629,5.2388,0,0,0,0,0,5.2809,5.2819,5.2758,5.2808,5.2799,5.2736,5.2737,5.2691,5.2665,5.2655,5.2619,5.2597,5.2599,5.2603,5.2602,5.2664,5.2652,5.2698,5.2715,5.2729,5.2738,5.2768,5.2787,5.2579,5.2579,5.2579,0,0,5.2878,5.2842,5.2853,5.2832,5.281,5.2822,5.2729,5.2747,5.2756,5.2658,5.2687,5.266,5.2631,5.2679,5.2698,5.2661,5.2793,5.274,5.2752,5.2752,5.2779,5.2798,5.2816,5.2585,5.2584,5.2583,0,0,5.301,5.2984,5.3021,5.3001,5.2967,5.2925,5.2935,5.2887,5.2864,5.2892,5.2819,5.283,5.2836,5.2818,5.2809,5.2936,5.288,5.2938,5.3026,5.3056,5.3073,5.3087,5.3131,5.3148,5.2947,5.2947,5.2947,0,5.31,5.3115,5.3048,5.307,5.3063,5.2975,5.3013,5.2997,5.2966,5.2964,5.2922,5.2928,5.2902,5.2944,5.2975,5.2972,5.298,5.2942,5.3076,5.3089,5.3101,5.3143,5.316,5.2954,5.2953,5.2953,5.2952,0,5.3227,5.324,5.3274,5.3245,5.3243,5.3273,5.3211,5.3216,5.3172,5.3134,5.3164,5.313,5.3121,5.3128,5.3084,5.3164,5.3141,5.3089,5.3015,5.313,5.3167,5.3182,5.2965,5.2962,5.296,5.2958,0,0,5.3435,5.3369,5.3382,5.3368,5.3325,5.3334,5.3361,5.335,5.3356,5.3339,5.3359,5.3367,5.3318,5.3309,5.3263,5.329,5.3391,5.3234,5.3232,5.3263,5.3476,5.3514,5.3534,5.3355,5.3357,5.3359,5.3478,0,5.3556,5.3596,5.3537,5.3591,5.3601,5.3519,5.3542,5.3519,5.3486,5.349,5.3453,5.3459,5.3395,5.3389,5.3412,5.3374,5.3433,5.3365,5.3372,5.3374,5.3381,5.3553,5.3594,5.3707,5.3492,5.3495,5.3496,0,5.3703,5.3691,5.3746,5.37,5.3702,5.3724,5.3709,5.3715,5.3688,5.3661,5.3652,5.3597,5.362,5.355,5.3581,5.3537,5.3537,5.3519,5.3522,5.3519,5.3441,5.3554,5.3742,5.3759,5.3519,5.3517,5.3515,0,5.3847,5.3845,5.3877,5.3868,5.3816,5.3833,5.3812,5.3781,5.3779,5.3767,5.3765,5.3757,5.3752,5.3747,5.3692,5.3646,5.373,5.3655,5.3709,5.371,5.3729,5.3728,5.3918,5.3732,5.3732,5.3731,5.3731,0,5.3988,5.4024,5.3941,5.3961,5.4,5.3932,5.3973,5.3944,5.3917,5.393,5.386,5.3874,5.3801,5.3807,5.3765,5.3797,5.3796,5.3775,5.3763,5.378,5.3783,5.3778,5.3768,5.3736,5.3735,5.3734,5.3733,0,5.4155,5.4101,5.413,5.4078,5.4066,5.4097,5.4053,5.4069,5.4032,5.4049,5.405,5.3991,5.3995,5.3939,5.3933,5.3904,5.3955,5.393,5.3964,5.3956,5.4012,5.4007,5.4204,5.4227,5.4028,5.403,5.4032,0,5.4247,5.4273,5.4224,5.4227,5.421,5.4216,5.4213,5.4148,5.4148,5.412,5.414,5.4138,5.4133,5.4143,5.41,5.4095,5.4068,5.4138,5.4067,5.4083,5.4068,5.4066,5.4068,5.4152,5.4155,5.4157,5.4158,0,5.4417,5.4389,5.4387,5.4376,5.4375,5.4363,5.4347,5.4354,5.4283,5.4288,5.429,5.4286,5.4279,5.4278,5.4265,5.4244,5.419,5.4181,5.4193,5.4211,5.4229,5.4218,5.4003,5.4177,5.4175,5.4174,5.4173,5.4172,5.4548,5.4567,5.4535,5.4536,5.4517,5.4504,5.4517,5.448,5.4481,5.447,5.4432,5.4442,5.4414,5.439,5.4374,5.4381,5.4347,5.4364,5.4369,5.4374,5.4383,5.4229,5.4379,5.4378,5.4377,5.4377,5.4377,0,5.4713,5.4688,5.4689,5.4669,5.467,5.4618,5.4598,5.4602,5.4611,5.459,5.4586,5.459,5.4588,5.4546,5.4539,5.4553,5.4528,5.4553,5.4551,5.4547,5.4415,5.4405,5.4574,5.4574,5.4574,5.4574,5.4574,5.4574,5.4798,5.4827,5.4796,5.4816,5.4791,5.4799,5.4792,5.478,5.4762,5.4769,5.4768,5.474,5.471,5.4701,5.4697,5.4685,5.4685,5.4719,5.4699,5.4576,5.4556,5.4538,5.4528,5.472,5.4721,5.483,5.4831,5.4831]}]]